Regional Weather Roundup
Issued by NWS

Home | Current Version | Previous Version | Text Only | Print | Product List | Glossary Off
Versions: 1 2 3 4 5 6 7 8 9 10 11 12 13 14 15 16 17 18 19 20 21 22 23 24 25 26 27 28 29 30 31 32 33 34 35 36 37 38 39 40 41 42 43 44

000
ASUS45 KCYS 031510
RWRWY

WYOMING REGIONAL WEATHER ROUNDUP
NATIONAL WEATHER SERVICE CHEYENNE WY
900 AM MDT MON AUG 03 2015

NOTE:  "FAIR" INDICATES FEW OR NO CLOUDS BELOW 12,000 FEET
WITH NO SIGNIFICANT WEATHER AND/OR OBSTRUCTIONS TO VISIBILITY.

WYZ001-031600-
YELLOWSTONE NATIONAL PARK

CITY           SKY/WX    TMP DP  RH WIND       PRES   REMARKS
LK YELLOWSTONE   N/A     64  39  39 CALM      30.26R
W YELLOWSTONE  NOT AVBL

$$
WYZ002>013-054>058-071-098>099-031600-
NORTHERN WYOMING

CITY           SKY/WX    TMP DP  RH WIND       PRES   REMARKS
JACKSON        CLOUDY    55  45  67 SW6       30.17R
CODY           FAIR      66  46  48 N6        30.07S
GREYBULL       FAIR      68  44  42 SE8       30.00S
WORLAND        FAIR      71  42  35 SW5       30.02R
SHERIDAN       FAIR      67  48  50 CALM      30.03S
BUFFALO        FAIR      74  55  51 SE14      30.10R
GILLETTE       FAIR      73  55  53 SE10      30.07R
HULETT         FAIR      66  52  59 N3        30.08S
NEWCASTLE      FAIR      70  52  52 SE6       30.08S

$$
WYZ014>020-022>026-101>103-031600-
CENTRAL WYOMING

CITY           SKY/WX    TMP DP  RH WIND       PRES   REMARKS
BIG PINEY      FAIR      63  44  50 E6        30.21R
PINEDALE       FAIR      66  43  42 E7        30.22R
DUBOIS         NOT AVBL
LANDER         FAIR      68  45  43 VRB3      30.09S
RIVERTON       FAIR      68  49  50 CALM      30.11R
CASPER         FAIR      67  51  56 CALM      30.11S
DOUGLAS        FAIR      70  55  59 NW5       30.10S

$$
WYZ021-027>030-104>119-031600-
SOUTHERN WYOMING

CITY           SKY/WX    TMP DP  RH WIND       PRES   REMARKS
EVANSTON       LGT RAIN  54  53  97 SW12      30.20S FOG
KEMMERER       LGT RAIN  59  48  67 SE20G28   30.23R
FORT BRIDGER   DRIZZLE   61  52  72 E16G22    30.22S
ROCK SPRINGS   CLOUDY    59  50  72 SE13      30.20R
DIXON          FAIR      63  50  61 W6        30.24R
RAWLINS        FAIR      67  46  47 VRB3      30.21F
SARATOGA       FAIR      64  45  48 SE5       30.23R
LARAMIE        FAIR      67  45  45 N5        30.23S
CHEYENNE       FAIR      72  51  47 SW5       30.15R
TORRINGTON     FAIR      69  56  62 SE6       30.03R
PINE BLUFFS    PTSUNNY   68  55  64 CALM      30.10R

$$



USA.gov is the U.S. government's official web portal to all federal, state and local government web resources and services.